Regional Weather Roundup
Issued by NWS

Home | Current Version | Previous Version | Graphics & Text | Print | Product List | Glossary On
Versions: 1 2 3 4 5 6 7 8 9 10 11 12 13 14 15 16 17 18 19 20 21 22 23 24 25 26 27
000
ASUS45 KBOU 290407
RWRCO

WEATHER ROUNDUP FOR COLORADO
NATIONAL WEATHER SERVICE DENVER/BOULDER CO
1000 PM MDT SUN MAY 28 2017

NOTE: "FAIR" INDICATES FEW OR NO CLOUDS BELOW 12000 FEET WITH NO
SIGNIFICANT WEATHER AND/OR OBSTRUCTIONS TO VISIBILITY.

COZ001>005-013-030-031-290500-
...NORTHWEST COLORADO...

CITY           SKY/WX    TMP DP  RH WIND       PRES   REMARKS
CRAIG          FAIR      46  36  68 CALM      30.26R
HAYDEN         FAIR      48  30  49 S5        30.28R
MEEKER         FAIR      52  32  46 CALM      30.26R
RABBIT EARS PA FAIR      37  28  70 NW5       30.46
STEAMBOAT SPGS FAIR      49  34  54 CALM      30.29
WALDEN           N/A     45  28  53 NW5       30.36
$$

COZ006>008-011-290500-
...WEST CENTRAL VALLEYS...

CITY           SKY/WX    TMP DP  RH WIND       PRES   REMARKS
GRAND JUNCTION FAIR      65  24  21 N7        30.13R
MONTROSE       FAIR      57  24  28 SE9       30.21R
EAGLE          FAIR      54  29  38 E10       30.28R
RIFLE          FAIR      64  27  24 W7        30.20R
DELTA          FAIR      64  18  16 NE7       30.15S
NUCLA          FAIR      63  14  15 CALM      30.23R
$$

COZ017>023-064>068-290500-
...SOUTHWEST COLORADO...

CITY           SKY/WX    TMP DP  RH WIND       PRES   REMARKS
DURANGO        FAIR      54  17  23 SW3       30.22R
CORTEZ         FAIR      51  31  46 E7        30.19R
PAGOSA SPRINGS FAIR      47  16  29 CALM      30.29R
TELLURIDE      FAIR      49  19  30 E3        30.39R
WOLF CREEK PAS CLOUDY    37  10  32 SW6       30.56
$$

COZ009-010-012-014-032>034-037-058>063-290500-
...CENTRAL COLORADO...

CITY           SKY/WX    TMP DP  RH WIND       PRES   REMARKS
ASPEN          FAIR      45  31  58 SW9       30.30R
BUENA VISTA    FAIR      53  21  29 CALM      30.33R
COPPER MTN     FAIR      39  12  33 CALM      30.53
BERTHOUD PASS  FAIR      28  19  69 E7        30.55  WCI  21
COTTONWOOD PAS FAIR      50  19  29 SE9       30.42
GUNNISON       FAIR      50  23  34 S5        30.30R
KREMMLING      FAIR      55  32  41 CALM      30.32
LEADVILLE      FAIR      36  22  56 NE7       30.41R
MONARCH PASS   MOCLDY    36  23  60 NE13      30.61
SALIDA         CLOUDY    57  26  30 SE15G23   30.37S
SUNLIGHT       FAIR      41  21  45 N5        30.50
WILKERSON PASS FAIR      36  25  64 S7        30.52
$$

COZ069>075-290500-
...SAN LUIS VALLEY/SANGRE DE CRISTO MOUNTAINS...

CITY           SKY/WX    TMP DP  RH WIND       PRES   REMARKS
ALAMOSA        FAIR      54  31  41 NE9       30.26R
DEL NORTE      FAIR      53  22  30 SW9       30.30
LA VETA PASS   MOCLDY    39  30  70 N3        30.53
SAGUACHE       FAIR      54  21  28 NW8       30.29
$$

COZ035-036-038>040-290500-
...NORTHERN COLORADO FRONT RANGE...

CITY           SKY/WX    TMP DP  RH WIND       PRES   REMARKS
DENVER INTL AP MOCLDY    55  42  61 VRB3      30.27R THUNDER
DMNS CITY PARK   N/A     57  40  53 NE3G17    30.27R
AURORA         MOCLDY    53  42  65 NE6       30.27R
FRONT RANGE AP NOT AVBL
ERIE MUNI ARPT FAIR      54  46  75 S3        30.26
BOULDER MUN AP FAIR      55  43  62 W5        30.26
CENTENNIAL     MOCLDY    56  40  55 NE13      30.27R
BROOMFIELD     MOCLDY    55  41  58 NE8       30.28R
FORT COLLINS   CLOUDY    56  46  69 W10       30.24R
LONGMONT       FAIR      56  46  70 CALM      30.27
$$

COZ041-046-047-076>085-087-088-290500-
...PIKES PEAK/PALMER DIVIDE AND SOUTHERN FOOTHILLS...

CITY           SKY/WX    TMP DP  RH WIND       PRES   REMARKS
COLO. SPRINGS  FAIR      53  37  54 CALM      30.28R
A. F. ACADEMY  FAIR      48  37  65 N8        30.28R
SCHRIEVER AFB  FAIR      55  33  42 S5        30.28R
CHEYENNE MTN   FAIR      56  28  33 SW6       30.25R
ELLICOTT       FAIR     N/A N/A N/A SE3       30.27R
FALCON         FAIR      50  35  55 CALM      30.32R
FORT CARSON    FAIR      59  32  35 W3        30.25R
LIMON          CLOUDY    53  45  74 N16       30.25R
MONUMENT HILL  CLOUDY    46  36  66 S3        30.32
CANON CITY     NOT AVBL
WALSENBURG     FAIR      48  43  81 W5        30.27R
TRINIDAD       FAIR      51  34  52 S7        30.25R
$$

COZ042>045-048>051-090-091-290500-
...NORTHEAST COLORADO...

CITY           SKY/WX    TMP DP  RH WIND       PRES   REMARKS
GREELEY ARPT   FAIR      57  45  64 NE6       30.24R
AKRON          MOCLDY    54  43  66 W6        30.20F
BURLINGTON     MOCLDY    55  47  74 NW16      30.18R
WRAY           MOCLDY    54  45  71 W7        30.16R
YUMA           MOCLDY    59  36  41 NW8       30.20
STERLING       NOT AVBL
HOLYOKE        NOT AVBL
FORT MORGAN    MOCLDY    55  43  63 NE6       30.20S
$$

COZ086-089-092>099-290500-
...SOUTHEAST COLORADO...

CITY           SKY/WX    TMP DP  RH WIND       PRES   REMARKS
PUEBLO         FAIR      58  40  51 CALM      30.19R
LA JUNTA       FAIR      61  42  49 SW8       30.16S
LAMAR          FAIR      54  43  66 S6        30.13R
SPRINGFIELD      N/A     51  44  77 SW5       30.19R
$$




USA.gov is the U.S. government's official web portal to all federal, state and local government web resources and services.